EW3525 Weather Reports


time (UTC)temp
F
wind
direction
speed
knots
gust
knots
rain 1hr
in
rain 24hr
in
rain mn
in
humidity
%
barometer
mb
20260507113030 62 355 0.0 2.6 0.00 0.00 0.00 42 1015.6
20260507112516 64 355 0.0 2.6 0.00 0.00 0.00 44 1015.6
20260507112017 64 340 0.0 2.6 0.00 0.00 0.00 45 1015.7
20260507111521 63 17 0.0 4.3 0.00 0.00 0.00 46 1015.7
20260507111012 63 5 1.7 4.3 0.00 0.00 0.00 45 1015.7
20260507110516 61 30 0.0 2.6 0.00 0.00 0.00 49 1015.7
20260507110110 59 11 0.0 2.6 0.00 0.00 0.00 52 1015.7
20260507105510 57 173 0.0 1.7 0.00 0.00 0.00 50 1015.7
20260507105009 58 221 0.0 1.7 0.00 0.00 0.00 48 1015.8
20260507104511 59 342 0.0 3.5 0.00 0.00 0.00 49 1015.7
20260507104009 59 36 0.9 3.5 0.00 0.00 0.00 50 1015.8
20260507103508 60 340 0.0 2.6 0.00 0.00 0.00 47 1015.9
20260507103009 61 107 0.0 1.7 0.00 0.00 0.00 50 1015.9
20260507102512 61 26 0.0 1.7 0.00 0.00 0.00 51 1016.0
20260507102008 60 76 0.0 1.7 0.00 0.00 0.00 46 1016.0
20260507101507 61 30 0.0 2.6 0.00 0.00 0.00 46 1016.0
20260507101004 62 355 0.9 2.6 0.00 0.00 0.00 58 1016.1
20260507100503 60 21 0.0 1.7 0.00 0.00 0.00 55 1016.0
20260507100003 60 350 0.0 2.6 0.00 0.00 0.00 61 1016.0
20260507095501 60 260 0.0 3.5 0.00 0.00 0.00 55 1016.1
20260507095101 60 10 0.9 3.5 0.00 0.00 0.00 60 1016.1
20260507094558 59 34 0.9 3.5 0.00 0.00 0.00 61 1016.1
20260507094057 57 204 0.0 1.7 0.00 0.00 0.00 62 1016.1
20260507093557 58 360 0.0 3.5 0.00 0.00 0.00 59 1016.1
20260507093058 59 162 0.0 3.5 0.00 0.00 0.00 67 1016.1
20260507092554 57 109 0.0 3.5 0.00 0.00 0.00 64 1016.0
20260507092053 58 339 0.9 3.5 0.00 0.00 0.00 67 1016.1
20260507091554 58 44 0.9 1.7 0.00 0.00 0.00 68 1016.2
20260507091051 57 33 0.0 1.7 0.00 0.00 0.00 67 1016.2
20260507090549 56 349 0.0 1.7 0.00 0.00 0.00 73 1016.3
20260507090049 56 65 0.0 1.7 0.00 0.00 0.00 73 1016.2
20260507085548 54 355 0.0 1.7 0.00 0.00 0.00 75 1016.2
20260507085046 54 32 0.0 3.5 0.00 0.00 0.00 75 1016.3
20260507084551 54 10 0.9 3.5 0.00 0.00 0.00 75 1016.3
20260507084042 54 257 0.0 1.7 0.00 0.00 0.00 76 1016.3
20260507083541 53 163 0.0 2.6 0.00 0.00 0.00 77 1016.3
20260507083047 53 213 0.0 1.7 0.00 0.00 0.00 81 1016.3
20260507082543 52 22 0.0 1.7 0.00 0.00 0.00 81 1016.4
20260507082042 51 93 0.0 2.6 0.00 0.00 0.00 84 1016.4
20260507081535 50 21 0.0 2.6 0.00 0.00 0.00 84 1016.3
20260507081036 49 360 0.0 2.6 0.00 0.00 0.00 87 1016.4
20260507080533 48 9 0.9 1.7 0.00 0.00 0.00 88 1016.4
20260507080032 47 166 0.0 1.7 0.00 0.00 0.00 88 1016.4
20260507075532 47 20 0.0 1.7 0.00 0.00 0.00 88 1016.3
20260507075029 46 57 0.0 1.7 0.00 0.00 0.00 90 1016.3
20260507074529 46 360 0.0 2.6 0.00 0.00 0.00 90 1016.3
20260507074026 45 347 0.9 2.6 0.00 0.00 0.00 91 1016.3
20260507073525 45 355 0.0 1.7 0.00 0.00 0.00 91 1016.3
20260507073024 44 355 0.0 2.6 0.00 0.00 0.00 92 1016.3
20260507072523 44 12 0.0 2.6 0.00 0.00 0.00 93 1016.3
20260507072021 43 178 0.0 1.7 0.00 0.00 0.00 93 1016.3
20260507071519 43 15 0.0 1.7 0.00 0.00 0.00 94 1016.2
20260507071025 42 22 0.0 1.7 0.00 0.00 0.00 94 1016.2
20260507070517 41 15 0.0 1.7 0.00 0.00 0.00 94 1016.2
20260507070016 41 350 0.0 1.7 0.00 0.00 0.00 94 1016.2
20260507065519 41 27 0.0 1.7 0.00 0.00 0.00 94 1016.2
20260507065014 40 26 0.0 1.7 0.00 0.00 0.00 94 1016.2
20260507064514 40 30 0.0 1.7 0.00 0.00 0.00 94 1016.3
20260507064014 40 24 0.0 1.7 0.00 0.00 0.00 94 1016.3
20260507063510 39 14 0.0 1.7 0.00 0.00 0.00 94 1016.3
20260507063012 39 15 0.0 1.7 0.00 0.00 0.00 94 1016.2
20260507062510 38 32 0.0 1.7 0.00 0.00 0.00 94 1016.2
20260507062009 38 30 0.0 1.7 0.00 0.00 0.00 94 1016.2
20260507061509 38 34 0.0 1.7 0.00 0.00 0.00 94 1016.2
20260507061009 38 33 0.0 1.7 0.00 0.00 0.00 94 1016.1
20260507060507 37 35 0.0 1.7 0.00 0.00 0.00 94 1016.1
20260507060007 37 42 0.0 1.7 0.00 0.00 0.00 94 1016.1
20260507055507 37 42 0.0 0.0 0.00 0.00 0.00 94 1016.0
20260507055005 36 42 0.0 1.7 0.00 0.00 0.00 94 1016.0
20260507054506 36 42 0.0 1.7 0.00 0.00 0.00 94 1016.0
20260507054004 36 42 0.0 0.0 0.00 0.00 0.00 94 1016.0
20260507053504 36 42 0.0 0.0 0.00 0.00 0.00 94 1015.9
20260507053003 35 42 0.0 0.0 0.00 0.00 0.00 93 1015.9
20260507052501 35 42 0.0 0.0 0.00 0.00 0.00 93 1015.8
20260507052002 35 42 0.0 1.7 0.00 0.00 0.00 93 1015.7
20260507051502 35 42 0.0 1.7 0.00 0.00 0.00 93 1015.8
20260507051001 34 42 0.0 1.7 0.00 0.00 0.00 93 1015.8
20260507050603 34 42 0.0 1.7 0.00 0.00 0.00 93 1015.7
20260507050100 34 42 0.0 1.7 0.00 0.00 0.00 93 1015.7
20260507045600 34 42 0.0 0.0 0.00 0.00 0.00 93 1015.7
20260507045059 34 42 0.0 0.0 0.00 0.00 0.00 93 1015.6
20260507044616 34 42 0.0 1.7 0.00 0.00 0.00 93 1015.6
20260507044058 34 42 0.0 0.9 0.00 0.00 0.00 93 1015.6
20260507043556 34 42 0.0 0.0 0.00 0.00 0.00 93 1015.6
20260507043058 34 42 0.0 0.0 0.00 0.00 0.00 93 1015.6
20260507042555 34 42 0.0 0.0 0.00 0.00 0.00 93 1015.6
20260507042055 34 42 0.0 0.0 0.00 0.00 0.00 93 1015.6
20260507041601 34 42 0.0 0.0 0.00 0.00 0.00 92 1015.6
20260507041053 34 42 0.0 0.0 0.00 0.00 0.00 92 1015.6
20260507040553 34 42 0.0 0.0 0.00 0.00 0.00 93 1015.6
20260507040100 34 42 0.0 0.0 0.00 0.00 0.00 93 1015.6
20260507035551 34 42 0.0 0.0 0.00 0.00 0.00 92 1015.6
20260507035051 35 42 0.0 0.0 0.00 0.00 0.00 92 1015.6
20260507034556 35 42 0.0 0.0 0.00 0.00 0.00 93 1015.6
20260507034049 35 42 0.0 0.0 0.00 0.00 0.00 93 1015.5
20260507033548 35 42 0.0 0.0 0.00 0.00 0.00 92 1015.5
20260507033048 35 42 0.0 0.0 0.00 0.00 0.00 92 1015.5
20260507032547 35 42 0.0 0.0 0.00 0.00 0.00 92 1015.5
20260507032047 35 42 0.0 0.0 0.00 0.00 0.00 93 1015.5
20260507031547 35 42 0.0 0.0 0.00 0.00 0.00 92 1015.6
20260507031047 35 42 0.0 0.0 0.00 0.00 0.00 92 1015.6
20260507030547 35 42 0.0 0.0 0.00 0.00 0.00 92 1015.6
20260507030052 35 42 0.0 0.0 0.00 0.00 0.00 92 1015.5
20260507025547 35 42 0.0 0.0 0.00 0.00 0.00 92 1015.5
20260507025047 35 42 0.0 0.0 0.00 0.00 0.00 92 1015.6
20260507024546 35 42 0.0 0.0 0.00 0.00 0.00 92 1015.5
20260507024045 35 42 0.0 0.0 0.00 0.00 0.00 92 1015.5
20260507023544 35 42 0.0 0.0 0.00 0.00 0.00 92 1015.5
20260507023044 35 42 0.0 0.0 0.00 0.00 0.00 92 1015.5
20260507022543 35 42 0.0 0.0 0.00 0.00 0.00 92 1015.5
20260507022044 35 42 0.0 0.0 0.00 0.00 0.00 92 1015.5
20260507021546 35 42 0.0 0.0 0.00 0.00 0.00 92 1015.5
20260507021042 36 42 0.0 0.0 0.00 0.00 0.00 91 1015.4
20260507020542 36 42 0.0 0.0 0.00 0.00 0.00 91 1015.5
20260507020042 36 42 0.0 0.0 0.00 0.00 0.00 91 1015.4
20260507015540 36 42 0.0 0.0 0.00 0.00 0.00 91 1015.4
20260507015039 36 42 0.0 0.0 0.00 0.00 0.00 91 1015.4
20260507014539 37 42 0.0 0.0 0.00 0.00 0.00 91 1015.3
20260507014038 37 42 0.0 0.0 0.00 0.00 0.00 91 1015.3
20260507013540 37 42 0.0 0.0 0.00 0.00 0.00 91 1015.2
20260507013039 37 42 0.0 0.0 0.00 0.00 0.00 91 1015.3
20260507012536 37 42 0.0 0.0 0.00 0.00 0.00 91 1015.3
20260507012036 37 42 0.0 0.0 0.00 0.00 0.00 91 1015.3
20260507011540 37 42 0.0 1.7 0.00 0.00 0.00 91 1015.4
20260507011035 38 42 0.0 0.0 0.00 0.00 0.00 91 1015.4
20260507010534 38 42 0.0 1.7 0.00 0.00 0.00 91 1015.3
20260507010034 38 42 0.0 1.7 0.00 0.00 0.00 91 1015.3
20260507005534 38 42 0.0 1.7 0.00 0.00 0.00 91 1015.3
20260507005133 38 42 0.0 1.7 0.00 0.00 0.00 91 1015.3
20260507004532 38 42 0.0 0.9 0.00 0.00 0.00 90 1015.4
20260507004031 38 42 0.0 0.9 0.00 0.00 0.00 90 1015.3
20260507003535 38 42 0.0 0.9 0.00 0.00 0.00 90 1015.3
20260507003031 38 42 0.0 1.7 0.00 0.00 0.00 90 1015.4
20260507002531 38 42 0.0 1.7 0.00 0.00 0.00 90 1015.4
20260507002031 38 42 0.0 1.7 0.00 0.00 0.00 90 1015.4
20260507001536 38 42 0.0 1.7 0.00 0.00 0.00 90 1015.4
20260507001030 38 42 0.0 0.0 0.00 0.00 0.00 90 1015.4
20260507000529 38 42 0.0 0.0 0.00 0.00 0.00 89 1015.4
20260507000028 39 42 0.0 0.0 0.00 0.00 0.00 89 1015.4
20260506235528 39 42 0.0 0.0 0.00 0.00 0.00 89 1015.4
20260506235027 39 42 0.0 0.0 0.00 0.00 0.00 89 1015.4
20260506234533 39 42 0.0 0.0 0.00 0.00 0.00 89 1015.3
20260506234026 39 42 0.0 0.0 0.00 0.00 0.00 89 1015.3
20260506233526 39 42 0.0 0.0 0.00 0.00 0.00 89 1015.3
20260506233026 39 42 0.0 0.0 0.00 0.00 0.00 88 1015.2
20260506232524 39 42 0.0 0.0 0.00 0.00 0.00 88 1015.2
20260506232024 39 42 0.0 0.0 0.00 0.00 0.00 88 1015.2
20260506231524 39 42 0.0 0.0 0.00 0.00 0.00 88 1015.2
20260506231022 39 42 0.0 0.0 0.00 0.00 0.00 87 1015.2
20260506230521 40 42 0.0 0.0 0.00 0.00 0.00 87 1015.1
20260506230021 40 42 0.0 0.0 0.00 0.00 0.00 87 1015.1
20260506225520 40 42 0.0 0.0 0.00 0.00 0.00 86 1015.1
20260506225019 40 42 0.0 0.0 0.00 0.00 0.00 87 1015.1
20260506224526 40 42 0.0 0.0 0.00 0.00 0.00 87 1015.1
20260506224018 40 42 0.0 0.0 0.00 0.00 0.00 86 1015.0
20260506223517 40 42 0.0 0.0 0.00 0.00 0.00 86 1015.1
20260506223016 40 42 0.0 0.0 0.00 0.00 0.00 86 1015.0
20260506222517 41 42 0.0 0.0 0.00 0.00 0.00 86 1015.0
20260506222015 41 42 0.0 0.0 0.00 0.00 0.00 85 1015.0
20260506221515 41 42 0.0 0.0 0.00 0.00 0.00 85 1015.0
20260506221013 41 42 0.0 0.0 0.00 0.00 0.00 84 1015.0
20260506220513 42 42 0.0 0.0 0.00 0.00 0.00 84 1014.9
20260506220013 42 42 0.0 0.0 0.00 0.00 0.00 84 1014.9
20260506215512 42 42 0.0 0.0 0.00 0.00 0.00 83 1014.9
20260506215111 42 42 0.0 0.0 0.00 0.00 0.00 83 1014.9
20260506214510 42 42 0.0 0.0 0.00 0.00 0.00 83 1014.8
20260506214010 42 42 0.0 0.0 0.00 0.00 0.00 83 1014.8
20260506213509 42 42 0.0 0.0 0.00 0.00 0.00 83 1014.9
20260506213016 43 42 0.0 0.0 0.00 0.00 0.00 82 1014.9
20260506212513 43 42 0.0 0.0 0.00 0.00 0.00 82 1014.8
20260506212007 43 42 0.0 0.0 0.00 0.00 0.00 82 1014.8
20260506211506 43 42 0.0 0.0 0.00 0.00 0.00 82 1014.8
20260506211008 43 42 0.0 0.0 0.00 0.00 0.00 82 1014.8
20260506210505 44 42 0.0 0.0 0.00 0.00 0.00 81 1014.7
20260506210004 44 42 0.0 0.0 0.00 0.00 0.00 80 1014.6
20260506205503 45 42 0.0 0.0 0.00 0.00 0.00 79 1014.6
20260506205001 45 42 0.0 0.0 0.00 0.00 0.00 79 1014.6
20260506204600 45 42 0.0 0.0 0.00 0.00 0.00 78 1014.5
20260506204059 45 42 0.0 0.0 0.00 0.00 0.00 77 1014.4
20260506203559 46 42 0.0 0.0 0.00 0.00 0.00 75 1014.4
20260506203143 46 42 0.0 1.7 0.00 0.00 0.00 74 1014.4
20260506202559 47 42 0.0 1.7 0.00 0.00 0.00 72 1014.4
20260506202058 48 42 0.0 1.7 0.00 0.00 0.00 71 1014.3
20260506201558 48 32 0.0 1.7 0.00 0.00 0.00 70 1014.3
20260506201101 49 43 0.0 3.5 0.00 0.00 0.00 69 1014.3
20260506200557 50 51 0.0 3.5 0.00 0.00 0.00 68 1014.2
20260506200057 51 55 0.0 1.7 0.00 0.00 0.00 67 1014.3
20260506195557 51 26 0.0 1.7 0.00 0.00 0.00 67 1014.2
20260506195058 51 21 0.0 1.7 0.00 0.00 0.00 68 1014.1
20260506194556 51 345 0.0 1.7 0.00 0.00 0.00 68 1014.1
20260506194054 51 40 0.0 1.7 0.00 0.00 0.00 67 1014.0
20260506193553 51 53 0.0 1.7 0.00 0.00 0.00 67 1014.0
20260506193053 51 42 0.0 1.7 0.00 0.00 0.00 67 1013.9
20260506192554 52 360 0.0 2.6 0.00 0.00 0.00 66 1013.9
20260506192052 52 13 0.0 1.7 0.00 0.00 0.00 67 1013.9
20260506191554 52 355 0.0 1.7 0.00 0.00 0.00 65 1013.9
20260506191053 52 59 0.0 1.7 0.00 0.00 0.00 65 1013.8
20260506190554 52 30 0.0 1.7 0.00 0.00 0.00 65 1013.7
20260506190055 52 43 0.0 1.7 0.00 0.00 0.00 66 1013.8
20260506185552 52 9 0.0 1.7 0.00 0.00 0.00 66 1013.7
20260506185053 52 360 0.0 1.7 0.00 0.00 0.00 64 1013.7
20260506184558 53 36 0.0 1.7 0.00 0.00 0.00 65 1013.7
20260506184052 53 14 0.0 3.5 0.00 0.00 0.00 63 1013.7
20260506183549 53 5 0.9 3.5 0.00 0.00 0.00 63 1013.6
20260506183050 53 38 0.0 2.6 0.00 0.00 0.00 62 1013.7
20260506182548 53 360 0.9 2.6 0.00 0.00 0.00 62 1013.6
20260506182048 53 15 0.9 2.6 0.00 0.00 0.00 63 1013.6
20260506181550 53 30 0.0 2.6 0.00 0.00 0.00 63 1013.5
20260506181048 54 34 0.0 4.3 0.00 0.00 0.00 62 1013.5
20260506180548 54 60 0.9 4.3 0.00 0.00 0.00 62 1013.3
20260506180048 54 12 0.9 3.5 0.00 0.00 0.00 63 1013.3
20260506175548 54 24 0.0 2.6 0.00 0.00 0.00 63 1013.3
20260506175052 54 42 0.0 2.6 0.00 0.00 0.00 62 1013.1
20260506174604 54 16 0.9 2.6 0.00 0.00 0.00 61 1013.1
20260506174050 54 77 0.0 2.6 0.00 0.00 0.00 63 1013.1
20260506173547 54 50 0.0 3.5 0.00 0.00 0.00 64 1013.1
20260506173054 54 37 0.0 3.5 0.00 0.00 0.00 61 1013.0
20260506172546 54 65 0.0 3.5 0.00 0.00 0.00 61 1013.0
20260506172047 54 53 0.9 3.5 0.00 0.00 0.00 61 1013.0
20260506171546 54 46 1.7 3.5 0.00 0.00 0.00 60 1013.0
20260506171046 55 28 0.0 4.3 0.00 0.00 0.00 60 1013.0
20260506170547 55 355 0.0 4.3 0.00 0.00 0.00 60 1013.0
20260506170048 55 17 0.9 7.8 0.00 0.00 0.00 59 1013.0
20260506165545 56 9 2.6 7.8 0.00 0.00 0.00 57 1012.9
20260506165045 56 5 0.0 1.7 0.00 0.00 0.00 54 1012.8
20260506164549 57 355 0.9 2.6 0.00 0.00 0.00 54 1012.9
20260506164044 56 26 0.0 2.6 0.00 0.00 0.00 57 1012.9
20260506163544 56 355 0.0 1.7 0.00 0.00 0.00 56 1012.9
20260506163058 56 5 0.0 1.7 0.00 0.00 0.00 59 1013.0
20260506162544 55 344 0.0 3.5 0.00 0.00 0.00 60 1013.0
20260506162044 55 19 0.0 3.5 0.00 0.00 0.00 59 1013.0
20260506161545 55 5 0.0 3.5 0.00 0.00 0.00 57 1013.0
20260506161044 55 22 0.0 3.5 0.00 0.00 0.00 57 1013.0
20260506160544 55 17 0.9 2.6 0.00 0.00 0.00 59 1013.0
20260506160044 55 5 0.0 5.2 0.00 0.00 0.00 58 1013.0
20260506155543 56 11 1.7 5.2 0.00 0.00 0.00 54 1013.0
20260506155043 57 26 0.9 2.6 0.00 0.00 0.00 54 1012.9
20260506154548 58 38 0.0 4.3 0.00 0.00 0.00 56 1012.9
20260506154046 57 9 0.9 4.3 0.00 0.00 0.00 53 1013.0
20260506153543 58 346 0.9 2.6 0.00 0.00 0.00 53 1013.0
20260506153042 57 321 0.9 3.5 0.00 0.00 0.00 54 1013.0
20260506152542 58 18 0.9 5.2 0.00 0.00 0.00 54 1013.0
20260506152043 57 75 0.0 5.2 0.00 0.00 0.00 57 1012.9
20260506151543 58 355 1.7 7.8 0.00 0.00 0.00 52 1013.0
20260506151041 59 10 1.7 7.8 0.00 0.00 0.00 52 1013.0
20260506150541 59 104 1.7 4.3 0.00 0.00 0.00 53 1013.0
20260506150041 61 49 1.7 4.3 0.00 0.00 0.00 47 1012.9
20260506145541 64 20 0.0 3.5 0.00 0.00 0.00 47 1012.8
20260506145040 62 181 0.0 4.3 0.00 0.00 0.00 47 1012.9
20260506144545 62 80 1.7 4.3 0.00 0.00 0.00 46 1013.0
20260506144040 62 83 0.9 5.2 0.00 0.00 0.00 46 1012.9
20260506143540 63 21 0.0 5.2 0.00 0.00 0.00 43 1012.9
20260506143040 61 346 1.7 3.5 0.00 0.00 0.00 50 1013.0
20260506142542 59 33 1.7 3.5 0.00 0.00 0.00 49 1013.0
20260506142041 61 46 0.9 4.3 0.00 0.00 0.00 46 1012.9
20260506141540 61 5 1.7 4.3 0.00 0.00 0.00 49 1013.0
20260506141039 59 54 0.0 5.2 0.00 0.00 0.00 53 1013.0
20260506140542 58 45 0.9 5.2 0.00 0.00 0.00 49 1013.0
20260506140039 59 331 0.9 9.6 0.00 0.00 0.00 46 1013.1
20260506135539 61 16 1.7 9.6 0.00 0.00 0.00 48 1013.0
20260506135039 59 291 0.9 5.2 0.00 0.00 0.00 49 1013.0
20260506134538 59 131 0.0 7.0 0.00 0.00 0.00 50 1013.0
20260506134038 60 355 0.9 7.0 0.00 0.00 0.00 48 1013.0
20260506133538 63 27 2.6 7.0 0.00 0.00 0.00 44 1012.9
20260506133037 64 318 0.9 7.0 0.00 0.00 0.00 41 1012.9
20260506132536 63 27 1.7 7.0 0.00 0.00 0.00 42 1012.8
20260506132036 63 316 2.6 5.2 0.00 0.00 0.00 45 1012.8
20260506131538 63 30 0.9 7.0 0.00 0.00 0.00 45 1012.9
20260506131035 63 360 0.9 7.0 0.00 0.00 0.00 46 1012.9
20260506130536 62 5 2.6 7.0 0.00 0.00 0.00 47 1012.9
20260506130039 62 323 1.7 7.8 0.00 0.00 0.00 46 1013.1
20260506125534 61 61 1.7 6.1 0.00 0.00 0.00 50 1013.1
20260506125033 60 19 0.9 5.2 0.00 0.00 0.00 51 1013.1
20260506124533 60 29 0.9 5.2 0.00 0.00 0.00 50 1013.1
20260506124032 59 5 0.9 7.0 0.00 0.00 0.00 54 1013.2
20260506123532 60 40 1.7 7.0 0.00 0.00 0.00 51 1013.1
20260506123033 60 326 0.0 4.3 0.00 0.00 0.00 51 1013.2
20260506122533 61 48 1.7 4.3 0.00 0.00 0.00 50 1013.1
20260506122034 62 360 0.9 5.2 0.00 0.00 0.00 50 1013.2
20260506121531 61 355 0.0 5.2 0.00 0.00 0.00 52 1013.2
20260506121031 60 68 0.9 4.3 0.00 0.00 0.00 52 1013.2
20260506120531 61 53 0.9 4.3 0.00 0.00 0.00 52 1013.2
20260506120032 61 36 0.9 5.2 0.00 0.00 0.00 54 1013.3
20260506115532 60 360 0.0 4.3 0.00 0.00 0.00 51 1013.3
20260506115029 61 18 0.9 5.2 0.00 0.00 0.00 52 1013.3
20260506114527 60 24 1.7 5.2 0.00 0.00 0.00 47 1013.3
20260506114028 60 21 1.7 7.0 0.00 0.00 0.00 52 1013.3
20260506113527 60 53 0.9 7.0 0.00 0.00 0.00 53 1013.4